Temp
-9 -9 -9 -9 -9 -9 -9 -9 -10 -10 -10 -10 -10 -10 -10 -10 -10 -10 -10 -10 -10 -10 -10 -10 -10 -10 -10 -10 -10 -10 -10 -11 -11 -11 -11 -11 -11 -12 -12 -12 -12 -12
-9 -9 -9 -9 -9 -9 -9 -10 -10 -10 -10 -10 -10 -10 -10 -10 -10 -10 -10 -10 -10 -10 -10 -10 -10 -10 -10 -10 -10 -11 -11 -11 -11 -11 -11 -11 -11 -12 -12 -12 -12 -12
-9 -9 -9 -9 -9 -9 -10 -10 -10 -10 -10 -10 -10 -10 -10 -10 -10 -10 -10 -10 -10 -10 -10 -10 -10 -10 -10 -10 -11 -11 -11 -11 -11 -11 -11 -11 -12 -12 -12 -12 -12 -12
-9 -9 -9 -9 -9 -10 -10 -10 -10 -10 -10 -10 -10 -10 -10 -10 -10 -10 -10 -10 -10 -10 -10 -10 -10 -11 -11 -11 -11 -11 -11 -11 -11 -11 -11 -11 -12 -12 -12 -12 -12 -12
-9 -9 -9 -9 -9 -10 -10 -10 -10 -10 -10 -10 -10 -10 -11 -11 -11 -11 -11 -11 -11 -11 -11 -11 -11 -11 -11 -11 -11 -11 -11 -11 -11 -11 -11 -12 -12 -12 -12 -12 -12 -12
-9 -9 -9 -9 -9 -10 -10 -10 -10 -11 -11 -11 -11 -11 -11 -11 -11 -11 -11 -11 -11 -11 -11 -11 -11 -11 -11 -11 -11 -11 -11 -11 -11 -12 -12 -12 -12 -12 -12 -12 -12 -12
-9 -9 -9 -9 -9 -10 -10 -10 -10 -11 -11 -11 -11 -11 -11 -11 -11 -11 -11 -11 -11 -11 -11 -11 -11 -11 -11 -11 -11 -11 -11 -12 -12 -12 -12 -12 -12 -12 -12 -12 -12 -12
-9 -9 -9 -9 -9 -10 -10 -10 -10 -11 -11 -11 -11 -11 -11 -11 -11 -11 -11 -11 -11 -11 -11 -12 -12 -12 -12 -12 -12 -12 -12 -12 -12 -12 -12 -12 -12 -12 -12 -12 -12 -12
-9 -9 -9 -9 -10 -10 -10 -10 -11 -11 -11 -11 -11 -11 -11 -11 -11 -11 -11 -11 -12 -12 -12 -12 -12 -12 -12 -12 -12 -12 -12 -12 -12 -12 -12 -12 -12 -12 -12 -12 -12 -12
-9 -9 -9 -9 -10 -10 -10 -10 -11 -11 -11 -11 -11 -11 -11 -12 -12 -12 -12 -12 -12 -12 -12 -12 -12 -12 -12 -12 -12 -12 -12 -12 -12 -12 -13 -13 -13 -13 -13 -13 -13 -13
-9 -9 -9 -10 -10 -10 -10 -10 -11 -11 -11 -11 -11 -11 -11 -12 -12 -12 -12 -12 -12 -12 -12 -12 -12 -12 -12 -12 -12 -12 -12 -12 -13 -13 -13 -13 -13 -13 -13 -13 -13 -13
-9 -9 -9 -10 -10 -10 -10 -11 -11 -11 -11 -11 -11 -11 -11 -12 -12 -12 -12 -12 -12 -12 -12 -12 -12 -12 -12 -12 -12 -13 -13 -13 -13 -13 -13 -13 -13 -13 -13 -13 -13 -13
-9 -9 -9 -10 -10 -10 -10 -11 -11 -11 -11 -11 -11 -11 -12 -12 -12 -12 -12 -12 -12 -12 -12 -12 -12 -12 -12 -12 -13 -13 -13 -13 -13 -13 -13 -13 -13 -13 -13 -13 -13 -13
-9 -9 -10 -10 -10 -10 -10 -10 -11 -11 -11 -11 -11 -12 -12 -12 -12 -12 -12 -12 -12 -12 -12 -12 -12 -12 -12 -13 -13 -13 -13 -13 -13 -13 -13 -13 -13 -13 -14 -14 -14 -14
-9 -9 -10 -10 -10 -10 -10 -11 -11 -11 -11 -11 -12 -12 -12 -12 -12 -12 -12 -12 -12 -12 -12 -12 -12 -13 -13 -13 -13 -13 -13 -13 -13 -13 -13 -13 -13 -14 -14 -14 -14 -14
-9 -9 -9 -10 -10 -10 -10 -11 -11 -11 -11 -11 -12 -12 -12 -12 -12 -12 -12 -12 -12 -12 -12 -12 -13 -13 -13 -13 -13 -13 -13 -13 -13 -13 -14 -14 -14 -14 -14 -14 -14 -14
-9 -9 -9 -10 -10 -10 -10 -11 -11 -11 -11 -11 -12 -12 -12 -12 -12 -12 -12 -12 -12 -12 -12 -13 -13 -13 -13 -13 -13 -13 -13 -13 -13 -13 -14 -14 -14 -14 -14 -14 -14 -14
-9 -9 -9 -10 -10 -10 -11 -11 -11 -11 -11 -11 -12 -12 -12 -12 -12 -12 -12 -12 -12 -12 -12 -13 -13 -13 -13 -13 -13 -13 -13 -13 -13 -14 -14 -14 -14 -14 -14 -14 -14 -14
-9 -9 -10 -10 -10 -10 -11 -11 -11 -11 -11 -11 -12 -12 -12 -12 -12 -12 -12 -12 -12 -13 -13 -13 -13 -13 -13 -13 -13 -13 -13 -13 -14 -14 -14 -14 -14 -14 -14 -14 -14 -14
-10 -10 -10 -10 -10 -11 -11 -11 -11 -11 -11 -11 -12 -12 -12 -12 -12 -12 -12 -12 -13 -13 -13 -13 -13 -13 -13 -13 -13 -13 -14 -14 -14 -14 -14 -14 -14 -14 -14 -14 -14 -15
-10 -10 -10 -10 -10 -11 -11 -11 -11 -11 -11 -12 -12 -12 -12 -12 -12 -12 -12 -13 -13 -13 -13 -13 -13 -13 -13 -13 -13 -14 -14 -14 -14 -14 -14 -14 -14 -14 -14 -14 -15 -15
-10 -10 -10 -10 -10 -10 -11 -11 -11 -11 -11 -12 -12 -12 -12 -12 -12 -12 -12 -13 -13 -13 -13 -13 -13 -13 -13 -13 -14 -14 -14 -14 -14 -14 -14 -14 -14 -14 -14 -14 -15 -15
-10 -10 -10 -10 -10 -10 -11 -11 -11 -11 -11 -12 -12 -12 -12 -12 -12 -12 -13 -13 -13 -13 -13 -13 -13 -13 -13 -14 -14 -14 -14 -14 -14 -14 -14 -14 -14 -14 -14 -14 -15 -15
-10 -10 -10 -10 -10 -10 -11 -11 -11 -11 -11 -12 -12 -12 -12 -12 -12 -12 -13 -13 -13 -13 -13 -13 -13 -13 -14 -14 -14 -14 -14 -14 -14 -14 -14 -14 -14 -14 -14 -15 -15 -15
-10 -10 -10 -10 -10 -10 -11 -11 -11 -11 -12 -12 -12 -12 -12 -12 -12 -13 -13 -13 -13 -13 -13 -13 -14 -14 -14 -14 -14 -14 -14 -14 -14 -14 -14 -14 -14 -14 -15 -15 -15 -15
-10 -10 -10 -10 -10 -10 -11 -11 -11 -11 -12 -12 -12 -12 -12 -12 -12 -13 -13 -13 -13 -13 -13 -13 -13 -13 -14 -14 -14 -14 -14 -14 -14 -14 -15 -15 -15 -15 -15 -15 -15 -15
Height
5872 5871 5870 5868 5866 5865 5864 5862 5861 5861 5860 5859 5858 5857 5856 5854 5853 5852 5851 5850 5848 5847 5846 5844 5843 5841 5840 5838 5836 5835 5833 5831 5830 5828 5827 5825 5823 5821 5820 5818 5816 5815
5871 5869 5868 5866 5864 5863 5862 5861 5860 5859 5858 5858 5857 5856 5854 5853 5852 5850 5850 5848 5847 5845 5844 5843 5841 5840 5838 5836 5835 5833 5831 5830 5828 5827 5825 5823 5821 5819 5818 5816 5814 5812
5868 5867 5866 5864 5863 5862 5860 5859 5859 5858 5857 5856 5855 5854 5853 5852 5851 5849 5848 5847 5846 5844 5842 5841 5840 5838 5837 5835 5833 5831 5830 5828 5827 5825 5823 5821 5819 5818 5816 5814 5812 5810
5866 5865 5864 5863 5861 5860 5859 5858 5857 5857 5856 5855 5854 5853 5852 5851 5850 5848 5847 5846 5844 5842 5841 5839 5838 5836 5835 5833 5831 5830 5828 5826 5825 5823 5822 5820 5818 5816 5814 5812 5810 5808
5864 5863 5862 5861 5860 5858 5857 5857 5856 5855 5855 5854 5853 5851 5850 5849 5848 5847 5846 5844 5842 5841 5839 5838 5836 5835 5833 5831 5830 5828 5826 5824 5823 5821 5819 5818 5816 5814 5812 5810 5808 5806
5862 5861 5860 5859 5858 5857 5856 5855 5855 5854 5853 5852 5851 5850 5849 5848 5847 5846 5844 5842 5841 5839 5838 5836 5835 5833 5831 5830 5828 5826 5824 5822 5820 5819 5817 5815 5813 5812 5810 5808 5806 5804
5861 5860 5859 5857 5856 5855 5855 5854 5854 5853 5852 5851 5850 5849 5847 5846 5845 5844 5843 5841 5839 5838 5836 5834 5833 5831 5830 5828 5826 5824 5822 5820 5818 5816 5814 5812 5811 5809 5807 5806 5804 5802
5859 5858 5857 5856 5855 5854 5853 5853 5852 5851 5850 5849 5848 5847 5846 5845 5844 5842 5841 5839 5838 5836 5835 5833 5831 5830 5828 5826 5824 5822 5820 5818 5816 5814 5812 5810 5808 5807 5805 5803 5801 5800
5858 5857 5855 5854 5853 5852 5852 5851 5851 5850 5849 5848 5847 5846 5845 5843 5842 5841 5839 5838 5837 5835 5833 5832 5830 5828 5826 5824 5822 5820 5818 5816 5814 5812 5810 5808 5806 5804 5802 5801 5799 5797
5856 5855 5854 5852 5852 5851 5850 5850 5849 5848 5847 5846 5845 5844 5843 5842 5840 5839 5838 5836 5835 5833 5832 5830 5828 5826 5824 5822 5820 5818 5816 5814 5812 5810 5808 5806 5804 5802 5800 5798 5796 5795
5854 5853 5852 5851 5850 5849 5849 5848 5847 5846 5845 5844 5843 5842 5841 5840 5839 5838 5836 5835 5833 5831 5830 5828 5826 5824 5822 5820 5818 5816 5814 5812 5810 5808 5806 5804 5802 5800 5798 5796 5794 5792
5852 5851 5850 5849 5848 5847 5847 5846 5845 5844 5843 5843 5842 5841 5840 5838 5837 5836 5834 5833 5831 5829 5827 5825 5823 5821 5819 5817 5816 5814 5812 5810 5808 5806 5804 5802 5800 5798 5796 5794 5792 5790
5850 5849 5848 5847 5846 5846 5845 5844 5844 5843 5842 5841 5840 5839 5838 5837 5836 5834 5832 5831 5829 5827 5824 5822 5820 5818 5816 5815 5814 5812 5810 5808 5806 5804 5802 5800 5798 5796 5794 5792 5790 5788
5848 5847 5846 5845 5844 5844 5843 5842 5842 5841 5840 5839 5838 5837 5836 5835 5834 5832 5830 5828 5826 5824 5822 5820 5817 5815 5814 5812 5811 5810 5808 5806 5804 5802 5800 5798 5796 5794 5792 5790 5788 5786
5847 5846 5845 5843 5842 5842 5841 5841 5840 5839 5838 5837 5836 5835 5834 5833 5831 5830 5828 5826 5824 5822 5820 5818 5815 5813 5811 5810 5809 5807 5806 5803 5801 5799 5798 5796 5794 5792 5791 5789 5787 5784
5844 5844 5843 5841 5840 5840 5839 5839 5838 5837 5836 5835 5834 5833 5832 5831 5829 5827 5826 5824 5822 5820 5818 5816 5813 5811 5809 5807 5806 5805 5803 5801 5799 5797 5795 5794 5792 5790 5789 5787 5785 5783
5842 5841 5840 5839 5839 5838 5837 5836 5836 5835 5834 5833 5832 5831 5830 5828 5827 5825 5823 5821 5819 5817 5816 5813 5811 5809 5807 5805 5803 5802 5800 5799 5797 5795 5793 5792 5790 5788 5787 5785 5783 5781
5840 5839 5838 5837 5836 5836 5835 5834 5833 5833 5832 5831 5830 5829 5827 5826 5824 5822 5821 5819 5817 5815 5813 5811 5809 5807 5805 5803 5801 5799 5798 5796 5795 5793 5791 5790 5788 5786 5784 5783 5781 5779
5838 5837 5836 5835 5834 5833 5833 5832 5831 5831 5830 5829 5828 5826 5825 5823 5822 5820 5819 5817 5815 5813 5811 5809 5807 5805 5804 5802 5800 5797 5796 5794 5793 5791 5789 5788 5786 5784 5782 5780 5778 5777
5836 5835 5834 5833 5832 5831 5831 5830 5829 5828 5828 5827 5826 5824 5823 5822 5820 5818 5816 5815 5813 5811 5809 5807 5806 5804 5802 5800 5798 5796 5794 5792 5791 5789 5787 5786 5784 5782 5780 5778 5776 5774
5834 5833 5832 5831 5830 5829 5828 5828 5827 5826 5826 5825 5823 5822 5821 5820 5818 5816 5815 5813 5811 5809 5807 5806 5804 5802 5801 5799 5796 5794 5792 5791 5789 5787 5786 5784 5782 5780 5778 5776 5774 5772
5832 5831 5830 5829 5828 5827 5826 5826 5825 5824 5823 5822 5821 5820 5819 5817 5816 5814 5812 5811 5809 5807 5806 5804 5802 5801 5799 5797 5795 5793 5791 5789 5787 5786 5784 5782 5781 5779 5776 5774 5772 5770
5830 5829 5828 5827 5826 5825 5824 5824 5823 5822 5821 5820 5819 5818 5816 5815 5813 5812 5810 5809 5807 5805 5804 5802 5801 5799 5797 5795 5793 5791 5789 5787 5786 5784 5782 5781 5779 5777 5775 5772 5770 5768
5829 5828 5827 5826 5824 5823 5822 5822 5821 5820 5819 5818 5817 5816 5814 5813 5811 5810 5808 5807 5805 5804 5802 5801 5799 5797 5796 5794 5792 5790 5788 5786 5784 5782 5781 5779 5777 5775 5773 5770 5768 5766
5827 5826 5825 5824 5823 5822 5821 5820 5819 5818 5817 5816 5815 5813 5812 5811 5809 5808 5807 5805 5804 5802 5801 5799 5797 5796 5794 5792 5790 5789 5787 5785 5783 5781 5779 5777 5775 5773 5771 5769 5766 5764
5825 5824 5823 5822 5821 5820 5819 5818 5817 5816 5815 5814 5813 5811 5810 5809 5808 5806 5805 5804 5802 5801 5799 5798 5796 5794 5792 5790 5788 5787 5785 5783 5781 5780 5778 5776 5774 5772 5769 5767 5765 5762
Wind_Speed
22 21 21 22 21 20 18 17 15 12 12 12 13 13 14 16 17 18 19 20 20 21 21 20 20 21 21 21 21 21 21 22 22 22 23 23 23 23 24 24 25 25
21 20 21 22 21 19 18 17 15 13 12 13 13 14 14 16 17 18 19 19 20 20 20 20 20 21 21 21 21 21 21 21 22 22 23 23 23 23 23 24 24 24
21 20 21 21 20 19 18 16 14 13 13 13 14 15 15 16 17 18 19 19 20 20 20 21 21 21 21 21 21 21 21 21 21 22 22 23 23 23 23 23 23 24
20 21 21 21 20 18 17 16 14 13 13 14 14 15 16 17 17 18 19 19 19 20 21 21 21 21 21 21 21 21 21 21 21 21 22 22 23 23 22 22 22 23
21 21 21 21 19 18 17 15 14 13 14 14 15 16 17 17 18 18 19 19 19 20 21 21 22 22 22 22 22 22 22 21 21 21 22 22 22 22 22 21 21 21
22 22 22 21 19 18 17 15 14 13 14 15 16 17 17 18 18 19 19 19 20 21 21 22 22 22 22 22 22 22 22 22 22 22 22 22 22 22 22 21 21 21
22 22 21 21 19 18 16 15 14 13 14 15 16 17 18 18 18 19 19 19 20 21 22 22 22 22 22 22 22 22 22 22 22 22 22 22 22 22 21 21 21 21
21 22 21 20 19 18 17 15 14 14 15 15 16 17 18 18 18 19 19 19 20 21 22 23 23 23 23 23 23 23 23 23 22 22 22 22 22 22 22 21 21 21
21 21 21 20 19 18 17 16 15 15 15 16 16 17 18 18 19 19 20 20 21 22 23 23 24 24 24 23 23 23 23 22 22 22 22 22 23 23 23 22 22 22
21 21 21 20 19 18 17 16 15 15 16 16 17 18 18 18 19 20 20 21 22 23 24 25 25 25 24 24 23 23 22 22 22 22 22 22 22 22 23 23 23 22
21 21 21 19 18 18 17 16 16 16 16 17 18 18 18 19 20 21 21 22 23 25 26 26 27 26 25 24 23 22 22 22 21 21 21 21 22 22 22 23 23 23
22 22 21 19 18 18 17 17 16 17 17 18 19 19 19 20 21 21 22 24 25 26 27 28 28 27 26 24 23 22 21 22 21 20 20 21 21 22 22 23 23 24
22 22 21 19 18 18 18 17 17 18 18 19 19 20 20 21 22 22 23 25 25 26 27 28 28 28 26 25 22 21 21 21 21 20 20 20 21 21 22 23 23 24
21 22 21 20 19 19 19 18 18 18 19 19 20 21 21 22 22 23 24 25 26 26 27 27 28 27 26 24 22 20 20 21 21 20 20 20 20 21 22 22 23 24
21 21 21 20 20 20 19 19 19 19 20 20 21 21 22 22 23 24 25 25 25 26 27 27 27 26 25 24 22 20 20 21 21 21 20 20 20 21 22 22 23 24
21 21 21 20 20 20 20 19 19 20 20 21 21 22 22 23 23 24 25 25 26 26 27 27 26 24 24 23 22 21 21 21 21 21 21 21 21 21 22 22 23 24
21 22 21 21 20 20 20 20 20 20 21 22 22 22 23 23 24 25 26 26 27 27 27 27 24 23 23 22 22 22 21 21 21 21 22 22 22 22 22 22 23 23
21 22 22 22 21 21 20 20 20 21 22 22 22 23 23 24 24 25 26 27 27 28 27 26 23 22 21 21 22 23 22 22 21 21 22 22 23 23 23 23 23 23
21 23 23 22 22 21 21 21 21 22 22 22 23 23 23 24 25 26 26 26 27 27 27 25 22 21 20 20 21 22 22 22 22 22 22 23 23 24 24 24 24 24
22 23 23 22 22 21 21 22 22 22 22 23 23 23 23 24 24 25 26 26 26 26 25 23 21 19 19 20 21 22 22 22 22 22 23 24 24 25 25 25 25 25
22 23 24 23 22 21 22 22 22 22 22 23 23 23 23 23 24 24 25 24 24 24 23 21 20 19 19 19 20 21 22 22 23 23 24 24 25 25 25 26 26 26
22 23 24 23 22 22 22 22 22 22 22 23 23 23 23 23 23 24 24 23 24 23 22 20 19 19 18 19 20 21 22 23 23 24 24 25 25 25 25 26 26 26
22 23 24 24 23 22 21 21 21 22 22 22 22 22 22 22 23 23 22 22 23 22 20 19 19 19 19 19 20 21 22 23 24 25 25 25 25 25 26 26 26 27
23 23 24 24 23 22 21 21 21 21 21 21 21 21 21 21 21 21 21 21 21 20 19 19 19 19 19 19 20 21 22 23 24 25 26 26 26 26 26 26 26 27
23 23 24 24 23 22 20 20 20 20 21 20 20 20 20 20 20 20 20 20 20 19 18 18 19 19 19 20 20 21 22 23 24 25 26 26 26 26 26 26 26 26
23 23 23 23 22 21 20 19 20 20 19 19 18 18 18 18 19 18 18 18 18 18 18 18 19 19 19 20 20 21 22 22 23 24 25 25 25 25 25 25 25 25
Wind_Direction
320 323 325 328 331 331 329 326 322 321 321 321 327 334 337 338 336 335 334 331 329 327 326 326 327 327 328 327 327 327 327 329 329 330 329 328 327 326 325 324 323 322
320 324 326 329 330 329 327 324 321 320 319 320 324 329 333 335 333 331 329 326 324 323 324 325 326 327 327 327 325 325 325 326 327 329 328 328 327 326 325 324 323 322
322 325 327 329 328 328 326 324 321 318 316 318 321 326 329 330 329 326 324 321 320 322 323 324 325 325 325 325 324 323 323 323 325 326 327 327 326 325 324 323 322 322
324 326 327 328 327 326 326 323 319 315 313 315 319 323 326 325 324 322 319 318 319 321 323 323 324 324 324 323 322 321 321 321 322 323 324 325 325 325 324 323 322 321
325 326 326 327 326 325 324 320 315 311 311 314 319 322 323 322 321 319 317 318 320 322 322 322 323 324 323 323 321 320 320 320 321 321 322 324 325 326 325 323 322 320
323 324 324 325 324 323 320 316 311 307 309 314 318 320 320 319 319 317 317 319 321 322 322 323 324 324 323 322 320 320 320 320 321 320 320 322 324 326 326 325 323 320
320 321 322 323 322 321 317 312 307 305 308 314 318 318 317 317 316 316 317 319 321 322 324 325 325 323 322 321 320 321 321 321 321 320 320 320 322 325 326 326 325 322
317 319 321 320 320 318 314 309 304 304 308 314 316 316 315 314 314 315 317 319 321 322 324 324 323 321 321 321 322 322 322 322 321 320 320 320 322 324 326 326 326 324
316 318 319 318 317 315 311 306 303 304 309 313 315 314 313 313 314 314 315 317 319 320 321 320 320 319 320 321 321 321 322 322 322 322 322 321 322 324 325 325 324 324
315 318 318 316 313 310 307 303 301 303 308 313 314 313 313 313 313 313 313 315 316 316 317 317 317 317 318 319 320 320 321 322 323 324 323 323 323 324 324 324 323 323
315 317 316 313 309 306 304 301 301 304 309 312 312 311 313 313 313 312 312 312 313 314 315 315 315 315 316 318 319 320 321 323 324 325 326 325 324 324 324 324 323 322
315 316 313 310 306 303 301 300 301 304 309 310 309 310 312 312 312 312 312 312 313 314 315 315 316 316 316 317 318 320 322 323 324 326 327 327 326 326 325 324 324 323
314 314 311 306 303 301 300 300 301 303 307 308 307 309 310 311 311 312 313 313 314 316 317 318 317 316 316 316 317 320 322 323 324 326 328 329 328 327 327 326 325 324
312 312 309 304 301 302 301 300 300 301 303 305 306 308 308 309 311 313 313 315 316 319 320 319 319 317 316 315 316 320 324 324 326 328 329 330 329 328 328 327 326 325
310 311 308 303 301 301 300 298 297 298 300 303 304 306 307 309 311 312 314 316 318 320 321 320 319 317 315 314 317 323 327 327 329 330 330 330 329 328 328 328 327 326
311 312 309 304 301 298 296 295 295 296 298 300 302 304 306 308 311 312 314 317 319 321 321 321 320 318 315 316 321 326 329 331 331 332 332 331 330 329 328 328 327 326
313 313 311 306 301 297 296 296 295 295 295 298 301 303 305 309 311 313 315 317 319 320 321 322 321 319 318 320 324 328 330 333 334 334 333 331 331 331 329 328 328 327
313 314 313 308 303 299 297 296 294 293 294 297 300 302 306 310 312 313 315 316 318 319 321 322 321 319 320 323 325 328 331 334 336 335 334 333 332 331 330 329 329 329
315 314 314 310 305 300 297 294 293 293 295 297 299 303 306 309 310 311 313 316 317 319 320 321 320 318 320 323 326 330 332 335 336 335 334 334 333 332 331 330 330 330
316 315 315 312 305 298 295 293 293 294 296 297 299 303 306 307 308 310 313 315 317 318 319 319 318 318 320 324 328 331 334 335 336 336 335 335 334 333 331 330 330 331
317 316 315 312 306 299 295 295 295 296 297 298 300 303 305 306 308 310 313 315 315 316 317 316 317 319 321 325 330 333 334 335 336 337 336 335 335 333 331 330 329 330
316 315 314 312 308 302 297 296 297 298 299 300 301 303 304 306 309 311 313 315 315 316 317 316 317 319 321 326 331 333 335 337 338 338 336 335 334 332 330 329 328 328
315 314 314 312 308 303 299 298 298 299 300 302 303 304 306 308 311 313 314 316 316 316 315 316 317 319 322 326 329 332 335 337 338 338 337 335 334 333 331 329 328 328
313 313 313 312 309 304 301 299 299 301 302 302 304 305 308 310 312 314 315 315 315 315 315 316 317 319 322 324 327 330 332 335 336 336 335 334 333 333 332 330 329 328
313 313 312 311 309 305 303 301 302 302 303 303 305 307 310 312 312 313 315 315 314 314 315 316 317 319 321 323 325 328 330 331 333 334 333 333 334 334 333 331 329 327
313 313 313 312 310 308 306 305 304 304 304 305 307 309 311 312 312 313 314 314 314 315 317 318 318 319 321 324 325 327 327 328 330 330 331 333 334 334 333 331 329 327